FW8688 Weather Reports


Display with metric or nautical units.
time (UTC)temp
F
wind
direction
speed
MPH
gust
MPH
rain 1hr
in
rain 24hr
in
rain mn
in
humidity
%
barometer
mb
20260507163806 59 148 3.0 5.0 0.00 0.00 0.00 39 1016.3
20260507163305 59 162 3.0 7.0 0.00 0.00 0.00 38 1016.3
20260507162805 58 179 3.0 7.0 0.00 0.00 0.00 40 1016.3
20260507162307 58 180 4.0 8.0 0.00 0.00 0.00 40 1016.3
20260507161805 58 167 3.0 6.0 0.00 0.00 0.00 42 1016.3
20260507161306 57 161 3.0 6.0 0.00 0.00 0.00 43 1016.3
20260507160305 57 153 4.0 9.0 0.00 0.00 0.00 43 1016.4
20260507155805 56 143 2.0 7.0 0.00 0.00 0.00 43 1016.4
20260507155306 56 133 7.0 12.0 0.00 0.00 0.00 41 1016.5
20260507154805 56 140 6.0 10.0 0.00 0.00 0.00 43 1016.5
20260507154305 56 134 5.0 8.0 0.00 0.00 0.00 47 1016.5
20260507153805 56 140 5.0 9.0 0.00 0.00 0.00 51 1016.7
20260507152805 55 145 3.0 9.0 0.00 0.00 0.00 52 1016.7
20260507152306 55 135 5.0 10.0 0.00 0.00 0.00 51 1016.8
20260507151804 55 172 5.0 8.0 0.00 0.01 0.00 50 1016.9
20260507151305 54 171 3.0 8.0 0.00 0.01 0.00 49 1016.8
20260507150805 54 164 4.0 8.0 0.00 0.01 0.00 48 1016.8
20260507150305 54 157 5.0 8.0 0.00 0.01 0.00 48 1016.8
20260507145805 54 140 6.0 10.0 0.00 0.01 0.00 47 1016.8
20260507144805 53 162 6.0 9.0 0.00 0.01 0.00 51 1016.9
20260507144304 54 160 5.0 9.0 0.00 0.01 0.00 54 1017.0
20260507143305 54 161 5.0 8.0 0.00 0.01 0.00 55 1017.0
20260507142805 53 149 5.0 12.0 0.00 0.01 0.00 53 1017.0
20260507142307 53 142 3.0 7.0 0.00 0.01 0.00 52 1017.0
20260507141805 53 145 4.0 7.0 0.00 0.01 0.00 51 1017.0
20260507141305 52 131 5.0 9.0 0.00 0.01 0.00 50 1017.0
20260507140305 51 114 2.0 8.0 0.00 0.01 0.00 51 1017.1
20260507134805 49 119 1.0 3.0 0.00 0.01 0.00 55 1016.7
20260507134305 49 147 2.0 3.0 0.00 0.01 0.00 57 1016.7
20260507133805 48 163 2.0 5.0 0.00 0.01 0.00 58 1016.8
20260507131805 46 178 0.0 1.0 0.00 0.01 0.00 62 1016.7
20260507131305 46 178 1.0 2.0 0.00 0.01 0.00 62 1016.6
20260507130805 46 178 1.0 2.0 0.00 0.01 0.00 63 1016.6
20260507130304 46 178 1.0 2.0 0.00 0.01 0.00 63 1016.6
20260507125804 46 178 0.0 0.0 0.00 0.01 0.00 63 1016.3
20260507125306 46 178 0.0 2.0 0.00 0.01 0.00 63 1016.3
20260507124805 46 178 1.0 2.0 0.00 0.01 0.00 62 1016.3
20260507123805 46 107 0.0 0.0 0.00 0.01 0.00 62 1016.3
20260507123305 46 107 0.0 0.0 0.00 0.01 0.00 61 1016.3
20260507122805 46 107 1.0 6.0 0.00 0.01 0.00 61 1016.3
20260507122307 46 99 3.0 6.0 0.00 0.01 0.00 62 1016.2
20260507121805 45 99 4.0 7.0 0.00 0.01 0.00 62 1016.2
20260507121305 45 103 4.0 6.0 0.00 0.01 0.00 62 1016.1
20260507120305 45 91 2.0 3.0 0.00 0.01 0.00 63 1016.1
20260507115805 45 144 0.0 1.0 0.00 0.01 0.00 63 1016.2
20260507115307 45 150 0.0 0.0 0.00 0.01 0.00 64 1016.3
20260507114805 45 150 0.0 0.0 0.00 0.01 0.00 64 1016.3
20260507114305 45 150 0.0 0.0 0.00 0.01 0.00 64 1016.2
20260507113805 45 150 0.0 0.0 0.00 0.01 0.00 63 1016.2
20260507112805 45 150 0.0 2.0 0.00 0.01 0.00 62 1016.2
20260507112307 45 132 1.0 3.0 0.00 0.01 0.00 62 1016.2
20260507111805 45 102 0.0 0.0 0.00 0.01 0.00 62 1016.2
20260507111305 45 102 0.0 1.0 0.00 0.01 0.00 62 1016.3
20260507110804 45 102 0.0 2.0 0.00 0.01 0.00 61 1016.0
20260507110305 45 102 2.0 3.0 0.00 0.01 0.00 61 1016.3
20260507105805 45 110 0.0 3.0 0.00 0.01 0.00 61 1016.3
20260507105307 45 110 1.0 2.0 0.00 0.01 0.00 61 1016.3
20260507104804 45 110 1.0 2.0 0.00 0.01 0.00 62 1016.3
20260507104305 45 110 0.0 2.0 0.00 0.01 0.00 62 1016.3
20260507103805 45 110 2.0 3.0 0.00 0.01 0.00 62 1016.5
20260507103304 45 132 0.0 0.0 0.00 0.01 0.00 62 1016.5
20260507102805 45 132 0.0 0.0 0.00 0.01 0.00 61 1016.5
20260507102307 45 132 0.0 0.0 0.00 0.01 0.00 61 1016.5
20260507101804 45 132 0.0 0.0 0.00 0.01 0.00 61 1016.5
20260507101304 45 132 0.0 0.0 0.00 0.01 0.00 60 1016.6
20260507100805 45 132 1.0 2.0 0.00 0.01 0.00 60 1016.6
20260507095805 45 98 2.0 3.0 0.00 0.01 0.00 60 1017.0
20260507095306 45 128 2.0 3.0 0.00 0.01 0.00 60 1017.0
20260507094305 45 128 0.0 0.0 0.00 0.01 0.00 60 1017.0
20260507093805 45 128 0.0 0.0 0.00 0.01 0.00 60 1017.0
20260507092307 45 128 0.0 0.0 0.00 0.04 0.00 59 1017.0
20260507084305 46 168 0.0 0.0 0.00 0.09 0.00 56 1017.0
20260507082805 47 168 1.0 2.0 0.00 0.09 0.00 56 1017.0
20260507082306 47 168 1.0 2.0 0.00 0.09 0.00 56 1017.0
20260507081805 47 168 0.0 0.0 0.00 0.09 0.00 56 1017.0
20260507081305 47 168 0.0 0.0 0.00 0.09 0.00 55 1017.0
20260507080805 47 168 0.0 0.0 0.00 0.09 0.00 54 1017.0
20260507080305 47 168 0.0 0.0 0.00 0.09 0.00 54 1017.0
20260507075805 48 168 0.0 0.0 0.00 0.09 0.00 53 1017.0
20260507074805 48 168 0.0 2.0 0.00 0.09 0.00 53 1017.3
20260507074305 48 168 1.0 2.0 0.00 0.09 0.00 53 1017.4
20260507073804 48 168 0.0 2.0 0.00 0.09 0.00 52 1017.4
20260507073305 48 168 0.0 0.0 0.00 0.09 0.00 52 1017.4
20260507072804 49 168 0.0 0.0 0.00 0.09 0.00 51 1017.5
20260507071805 49 168 0.0 0.0 0.00 0.09 0.00 50 1017.5
20260507071304 49 168 0.0 0.0 0.00 0.09 0.00 50 1017.5
20260507070805 49 168 0.0 0.0 0.00 0.09 0.00 49 1017.5
20260507070304 49 168 0.0 0.0 0.00 0.09 0.00 49 1017.6
20260507065805 49 168 0.0 1.0 0.00 0.09 0.00 49 1017.6
20260507064305 49 168 2.0 3.0 0.00 0.09 0.00 49 1017.3
20260507063804 49 162 2.0 3.0 0.00 0.09 0.00 48 1017.3
20260507063304 49 125 1.0 2.0 0.00 0.09 0.00 47 1017.3
20260507062804 50 125 0.0 2.0 0.00 0.09 0.00 47 1017.3
20260507062306 50 125 0.0 2.0 0.00 0.09 0.00 47 1017.3
20260507061805 50 125 1.0 2.0 0.00 0.09 0.00 46 1017.3
20260507060805 51 94 1.0 5.0 0.00 0.09 0.00 45 1017.3
20260507060304 51 109 1.0 3.0 0.00 0.09 0.00 44 1017.3
20260507055804 51 110 2.0 5.0 0.00 0.09 0.09 44 1017.2
20260507055306 51 108 1.0 5.0 0.00 0.09 0.09 44 1017.2
20260507054804 52 94 1.0 3.0 0.00 0.09 0.09 44 1017.3
20260507054305 52 92 1.0 2.0 0.00 0.09 0.09 44 1017.3
20260507053805 52 92 2.0 5.0 0.00 0.09 0.09 43 1017.1
20260507053305 52 186 0.0 0.0 0.00 0.09 0.09 42 1017.1
20260507052805 52 186 0.0 0.0 0.00 0.09 0.09 42 1017.1
20260507051804 52 186 1.0 3.0 0.00 0.09 0.09 41 1017.2
20260507050304 53 121 1.0 3.0 0.00 0.09 0.09 42 1017.2
20260507045805 53 113 2.0 3.0 0.00 0.09 0.09 41 1017.1
20260507045306 53 130 2.0 3.0 0.00 0.09 0.09 41 1017.1
20260507044805 53 172 0.0 2.0 0.00 0.09 0.09 41 1017.0
20260507044305 53 172 1.0 2.0 0.00 0.09 0.09 40 1017.0
20260507043804 53 192 2.0 3.0 0.00 0.09 0.09 40 1017.0
20260507042804 54 93 5.0 6.0 0.00 0.09 0.09 39 1016.8
20260507042306 54 75 5.0 8.0 0.00 0.09 0.09 39 1016.7
20260507041804 54 72 7.0 8.0 0.00 0.09 0.09 38 1016.7
20260507041304 54 70 6.0 8.0 0.00 0.09 0.09 37 1016.8
20260507040804 55 65 4.0 7.0 0.00 0.09 0.09 36 1016.8
20260507035804 55 76 1.0 3.0 0.00 0.09 0.09 36 1016.8
20260507035306 55 160 2.0 3.0 0.00 0.09 0.09 35 1016.8
20260507034806 55 140 2.0 3.0 0.00 0.09 0.09 35 1016.8
20260507034304 56 148 3.0 3.0 0.00 0.09 0.09 34 1016.8
20260507033804 56 300 0.0 1.0 0.00 0.09 0.09 33 1016.6
20260507033305 57 300 2.0 3.0 0.00 0.09 0.09 33 1016.4
20260507032804 57 301 2.0 3.0 0.00 0.09 0.09 32 1016.2
20260507032306 57 313 3.0 3.0 0.00 0.09 0.09 31 1016.2
20260507031804 58 316 2.0 3.0 0.00 0.09 0.09 30 1016.2
20260507031304 58 304 1.0 2.0 0.00 0.09 0.09 31 1016.2
20260507030805 59 304 2.0 3.0 0.00 0.09 0.09 30 1016.2
20260507025306 60 311 2.0 3.0 0.00 0.09 0.09 28 1016.2
20260507024804 60 291 0.0 1.0 0.00 0.09 0.09 29 1016.1
20260507024304 60 291 1.0 3.0 0.00 0.09 0.09 28 1016.1
20260507023805 60 292 2.0 3.0 0.00 0.09 0.09 27 1016.2
20260507023305 61 305 2.0 3.0 0.00 0.09 0.09 27 1016.1
20260507022804 61 297 2.0 3.0 0.00 0.09 0.09 27 1016.0
20260507021805 62 315 2.0 3.0 0.00 0.09 0.09 26 1016.0
20260507021305 62 326 3.0 8.0 0.00 0.09 0.09 25 1015.9
20260507020805 62 341 3.0 7.0 0.00 0.09 0.09 25 1015.9
20260507020304 62 350 5.0 6.0 0.00 0.09 0.09 24 1016.0
20260507015805 62 353 4.0 7.0 0.00 0.09 0.09 24 1016.0
20260507014805 63 16 3.0 7.0 0.00 0.09 0.09 24 1016.1
20260507014304 63 330 3.0 7.0 0.00 0.09 0.09 24 1016.1
20260507013804 63 313 4.0 8.0 0.00 0.09 0.09 24 1016.1
20260507013304 62 10 5.0 9.0 0.00 0.09 0.09 24 1016.0
20260507012804 62 20 5.0 10.0 0.00 0.09 0.09 24 1016.2
20260507012306 63 18 6.0 16.0 0.00 0.09 0.09 24 1016.2
20260507011804 63 37 6.0 12.0 0.00 0.09 0.09 23 1016.2
20260507011305 63 0 5.0 12.0 0.00 0.09 0.09 23 1016.2
20260507010304 63 351 4.0 12.0 0.00 0.09 0.09 23 1016.1
20260507005804 63 2 6.0 13.0 0.00 0.09 0.09 23 1016.1
20260507005306 63 358 7.0 15.0 0.00 0.09 0.09 23 1016.1
20260507004805 63 7 5.0 9.0 0.00 0.09 0.09 24 1016.0
20260507004304 63 21 8.0 16.0 0.00 0.09 0.09 23 1016.0
20260507003804 63 17 7.0 12.0 0.00 0.09 0.09 23 1016.0
20260507003304 63 22 9.0 15.0 0.00 0.09 0.09 23 1016.2
20260507002804 63 1 7.0 12.0 0.00 0.09 0.09 23 1016.2
20260507002306 63 0 6.0 10.0 0.00 0.09 0.09 24 1016.2
20260507001804 63 338 7.0 12.0 0.00 0.09 0.09 23 1016.2
20260507001304 63 4 9.0 12.0 0.00 0.09 0.09 23 1016.1
20260507000804 63 357 8.0 12.0 0.00 0.09 0.09 25 1016.2
20260507000306 63 4 9.0 14.0 0.00 0.09 0.09 24 1016.2
20260506235804 63 337 8.0 13.0 0.00 0.09 0.09 23 1016.2
20260506235306 63 355 6.0 12.0 0.00 0.09 0.09 24 1015.8
20260506234804 63 334 9.0 13.0 0.00 0.09 0.09 24 1015.8
20260506234305 63 315 7.0 14.0 0.00 0.09 0.09 25 1015.8
20260506233804 63 355 10.0 15.0 0.00 0.09 0.09 25 1015.8
20260506233304 63 352 9.0 16.0 0.00 0.09 0.09 25 1015.8
20260506232805 63 324 7.0 13.0 0.00 0.09 0.09 25 1015.8
20260506232306 62 5 10.0 20.0 0.00 0.09 0.09 25 1015.8
20260506231804 62 324 9.0 15.0 0.00 0.09 0.09 25 1015.8
20260506231304 62 354 10.0 18.0 0.00 0.09 0.09 26 1015.8
20260506225804 62 323 9.0 20.0 0.00 0.09 0.09 26 1015.7
20260506224804 62 341 10.0 17.0 0.00 0.09 0.09 25 1015.7
20260506223805 62 335 10.0 21.0 0.00 0.09 0.09 26 1015.8
20260506223304 62 338 12.0 23.0 0.00 0.09 0.09 25 1015.9
20260506222804 62 334 12.0 23.0 0.00 0.09 0.09 25 1015.9
20260506222306 62 3 10.0 15.0 0.00 0.09 0.09 26 1015.9
20260506221804 62 330 9.0 20.0 0.00 0.09 0.09 26 1016.1
20260506221304 62 326 12.0 18.0 0.00 0.09 0.09 26 1016.1
20260506220804 62 328 12.0 20.0 0.00 0.09 0.09 26 1016.1
20260506220305 62 353 7.0 20.0 0.00 0.09 0.09 26 1016.0
20260506214804 61 354 10.0 17.0 0.00 0.09 0.09 26 1016.2
20260506214304 61 4 12.0 18.0 0.00 0.09 0.09 26 1016.1
20260506213804 61 354 12.0 21.0 0.00 0.09 0.09 26 1016.1
20260506213304 61 14 10.0 20.0 0.00 0.09 0.09 26 1016.1
20260506212804 61 13 13.0 21.0 0.00 0.09 0.09 26 1016.3
20260506212306 61 299 10.0 20.0 0.00 0.09 0.09 26 1016.3
20260506211805 61 316 12.0 20.0 0.00 0.09 0.09 26 1016.2
20260506211304 61 322 13.0 20.0 0.00 0.09 0.09 26 1016.0
20260506210805 61 342 11.0 21.0 0.00 0.09 0.09 26 1016.0
20260506210305 60 321 10.0 18.0 0.00 0.09 0.09 26 1016.0
20260506205804 60 0 12.0 18.0 0.00 0.09 0.09 27 1015.9
20260506205306 60 346 13.0 23.0 0.00 0.09 0.09 27 1015.9
20260506204804 60 335 10.0 24.0 0.00 0.09 0.09 26 1015.9
20260506204304 60 332 12.0 25.0 0.00 0.09 0.09 26 1015.9
20260506203804 60 358 17.0 23.0 0.00 0.09 0.09 24 1016.0
20260506203304 60 351 11.0 21.0 0.00 0.09 0.09 24 1016.0
20260506202804 60 336 14.0 23.0 0.00 0.09 0.09 25 1015.9
20260506201804 60 349 14.0 24.0 0.00 0.09 0.09 25 1016.0
20260506201304 59 333 13.0 21.0 0.00 0.09 0.09 26 1016.0
20260506200804 59 323 13.0 20.0 0.00 0.09 0.09 25 1016.0
20260506195804 59 2 12.0 21.0 0.00 0.09 0.09 26 1016.0
20260506195306 59 14 13.0 22.0 0.00 0.09 0.09 24 1016.0
20260506194804 59 12 16.0 25.0 0.00 0.09 0.09 25 1016.1
20260506194305 59 352 14.0 21.0 0.00 0.09 0.09 24 1016.2
20260506193804 59 345 14.0 21.0 0.00 0.09 0.09 25 1016.3
20260506192306 58 350 13.0 21.0 0.00 0.09 0.09 24 1016.4
20260506191804 57 358 11.0 20.0 0.00 0.09 0.09 23 1016.4
20260506191304 57 343 12.0 22.0 0.00 0.09 0.09 25 1016.2
20260506190804 57 14 12.0 20.0 0.00 0.09 0.09 24 1016.2
20260506190304 57 1 10.0 17.0 0.00 0.09 0.09 25 1016.2
20260506185804 57 30 10.0 18.0 0.00 0.09 0.09 25 1016.2
20260506185306 56 357 13.0 20.0 0.00 0.09 0.09 25 1016.2
20260506184805 56 29 14.0 21.0 0.00 0.09 0.09 24 1016.4
20260506184304 56 1 11.0 17.0 0.00 0.09 0.09 24 1016.4
20260506183304 56 328 12.0 21.0 0.00 0.09 0.09 26 1016.3
20260506182804 56 343 8.0 15.0 0.00 0.09 0.09 28 1016.3
20260506182306 55 356 12.0 21.0 0.00 0.09 0.09 27 1016.5
20260506181805 55 354 12.0 20.0 0.00 0.09 0.09 26 1016.3
20260506181304 55 342 12.0 20.0 0.00 0.09 0.09 26 1016.3
20260506180804 55 329 12.0 23.0 0.00 0.09 0.09 26 1016.2
20260506175804 55 27 10.0 18.0 0.00 0.09 0.09 26 1016.0
20260506175306 55 13 14.0 22.0 0.00 0.09 0.09 26 1016.0
20260506174804 55 354 12.0 20.0 0.00 0.09 0.09 26 1015.8
20260506174304 55 353 10.0 21.0 0.00 0.09 0.09 28 1015.8
20260506173804 55 334 9.0 16.0 0.00 0.09 0.09 28 1015.8
20260506173304 54 19 9.0 18.0 0.00 0.09 0.09 27 1015.8
20260506172804 54 350 12.0 22.0 0.00 0.09 0.09 24 1015.8
20260506172306 54 9 12.0 17.0 0.00 0.09 0.09 24 1015.2
20260506171804 54 338 12.0 21.0 0.00 0.09 0.09 29 1015.2
20260506171304 54 341 11.0 21.0 0.00 0.09 0.09 28 1015.2
20260506170804 54 2 10.0 21.0 0.00 0.09 0.09 28 1015.2
20260506170305 54 358 13.0 20.0 0.00 0.09 0.09 28 1015.2
20260506165804 54 3 13.0 20.0 0.00 0.09 0.09 28 1015.2
20260506165305 53 351 12.0 20.0 0.00 0.09 0.09 28 1015.2
20260506164804 53 10 9.0 17.0 0.00 0.09 0.09 33 1015.2
20260506164305 53 28 10.0 22.0 0.00 0.09 0.09 30 1015.2